Language: 


Des rapports , des résumés tant et plus, au choix de chacun....


Données Historiques de Météogheer
Journalier Rapport pour Décembre 22, 2017 Unitée:  Impériale    Métrique   Les deux
Suivant Jour »
Journalier Hebdomadaire Mensuel Annuel Sur mesure
  Max: Min: Moyenne:
Température: 52.3 °F 48.2 °F 49.8 °F
Point de rosée: 51.8 °F 48.2 °F 50 °F
Humidité: 98% 98% 98%
Vent: 8.7mph 0mph 0.8mph
Rafales: 9.4mph - -
Vent- - West
Pression: 30.6 in 30.5 in -
Pluie: 0 in    
Historical Graphs
 
 
Données tabulaires pour Décembre 22, 2017
Heure Température Point de rosée Pression Vent Vent Rafales Humidité Pluie Taux (Horaire) Conditions
00:01 50.9 °F 51.8 °F 30.5 in Calm   7.6 mph 98% 0 in
00:03 50.9 °F 51.8 °F 30.5 in WSW 4.9 mph 7.6 mph 98% 0 in
00:07 50.9 °F 51.8 °F 30.5 in West 4.9 mph 8.1 mph 98% 0 in
00:09 50.9 °F 51.8 °F 30.5 in WSW 5.6 mph 8.1 mph 98% 0 in
00:14 50.9 °F 51.8 °F 30.5 in WSW 7.4 mph 8.1 mph 98% 0 in
00:19 50.7 °F 50 °F 30.5 in WSW 6.7 mph 7.6 mph 98% 0 in
00:20 50.7 °F 50 °F 30.5 in WSW 6 mph 7.6 mph 98% 0 in
00:21 50.7 °F 50 °F 30.5 in West 5.8 mph 7.6 mph 98% 0 in
00:25 50.7 °F 50 °F 30.5 in WSW 5.4 mph 8.7 mph 98% 0 in
00:30 50.7 °F 50 °F 30.5 in WSW 8.7 mph 8.7 mph 98% 0 in
00:31 50.7 °F 50 °F 30.5 in WSW 5.4 mph 8.7 mph 98% 0 in
00:35 50.7 °F 50 °F 30.5 in Calm   8.7 mph 98% 0 in
00:37 50.7 °F 50 °F 30.5 in Calm   8.7 mph 98% 0 in
00:42 50.7 °F 50 °F 30.5 in Calm   7.6 mph 98% 0 in
00:44 50.5 °F 50 °F 30.5 in West 4 mph 6.9 mph 98% 0 in
00:49 50.5 °F 50 °F 30.5 in Calm   4.7 mph 98% 0 in
00:50 50.5 °F 50 °F 30.5 in Calm   4.7 mph 98% 0 in
00:55 50.5 °F 50 °F 30.5 in Calm   4 mph 98% 0 in
01:00 50.4 °F 50 °F 30.5 in Calm   6.9 mph 98% 0 in
01:01 50.4 °F 50 °F 30.5 in Calm   6.9 mph 98% 0 in
01:04 50.4 °F 50 °F 30.5 in West 3.6 mph 7.4 mph 98% 0 in
01:07 50.4 °F 50 °F 30.5 in Calm   7.4 mph 98% 0 in
01:12 50.4 °F 50 °F 30.5 in Calm   7.4 mph 98% 0 in
01:16 50.2 °F 50 °F 30.5 in WSW 4.3 mph 6.3 mph 98% 0 in
01:19 50.2 °F 50 °F 30.5 in West 5.8 mph 6.3 mph 98% 0 in
01:24 50.2 °F 50 °F 30.5 in WSW 3.1 mph 6.3 mph 98% 0 in
01:25 50.2 °F 50 °F 30.5 in WSW 1.6 mph 6 mph 98% 0 in
01:27 50.2 °F 50 °F 30.5 in West 2.5 mph 6 mph 98% 0 in
01:32 50.2 °F 50 °F 30.5 in Calm   6 mph 98% 0 in
01:33 50.2 °F 50 °F 30.5 in Calm   6 mph 98% 0 in
01:35 50 °F 50 °F 30.5 in West 1.3 mph 6 mph 98% 0 in
01:39 50 °F 50 °F 30.5 in Calm   4.7 mph 98% 0 in
01:44 50 °F 50 °F 30.5 in Calm   4 mph 98% 0 in
01:45 50 °F 50 °F 30.5 in Calm   4 mph 98% 0 in
01:50 49.8 °F 50 °F 30.5 in Calm   5.4 mph 98% 0 in
01:53 49.8 °F 50 °F 30.5 in WSW 4 mph 5.4 mph 98% 0 in
01:59 49.8 °F 50 °F 30.5 in West 1.6 mph 6.5 mph 98% 0 in
02:00 49.8 °F 50 °F 30.5 in Calm   6.5 mph 98% 0 in
02:05 49.8 °F 50 °F 30.5 in West 1.6 mph 6.5 mph 98% 0 in
02:07 49.8 °F 50 °F 30.5 in Calm   4.9 mph 98% 0 in
02:12 49.8 °F 50 °F 30.5 in Calm   4.3 mph 98% 0 in
02:17 49.8 °F 50 °F 30.5 in WSW 4.3 mph 6.3 mph 98% 0 in
02:21 49.8 °F 50 °F 30.5 in Calm   6.3 mph 98% 0 in
02:26 49.8 °F 50 °F 30.5 in WSW 6.3 mph 6.5 mph 98% 0 in
02:28 49.8 °F 50 °F 30.5 in WSW 5.8 mph 6.5 mph 98% 0 in
02:33 49.8 °F 50 °F 30.5 in Calm   7.8 mph 98% 0 in
02:34 49.8 °F 50 °F 30.5 in Calm   7.8 mph 98% 0 in
02:38 49.8 °F 50 °F 30.5 in West 5.6 mph 7.8 mph 98% 0 in
02:43 49.8 °F 50 °F 30.5 in SW 5.8 mph 5.8 mph 98% 0 in
02:44 49.8 °F 50 °F 30.5 in West 5.6 mph 5.8 mph 98% 0 in
02:49 49.6 °F 50 °F 30.5 in WSW 5.6 mph 6.5 mph 98% 0 in
02:50 49.6 °F 50 °F 30.5 in Calm   6.5 mph 98% 0 in
02:55 49.6 °F 50 °F 30.5 in WSW 6 mph 6.5 mph 98% 0 in
02:59 49.6 °F 50 °F 30.5 in Calm   6.5 mph 98% 0 in
03:01 49.6 °F 50 °F 30.5 in West 6.5 mph 6.5 mph 98% 0 in
03:04 49.6 °F 50 °F 30.5 in West 0.9 mph 7.6 mph 98% 0 in
03:09 49.6 °F 50 °F 30.5 in Calm   7.6 mph 98% 0 in
03:13 49.6 °F 50 °F 30.5 in West 4.9 mph 6.9 mph 98% 0 in
03:17 49.6 °F 50 °F 30.5 in Calm   6.5 mph 98% 0 in
03:18 49.6 °F 50 °F 30.5 in WSW 4.7 mph 6.5 mph 98% 0 in
03:23 49.6 °F 50 °F 30.5 in Calm   6 mph 98% 0 in
03:25 49.6 °F 50 °F 30.5 in WSW 4.9 mph 6 mph 98% 0 in
03:30 49.6 °F 50 °F 30.5 in Calm   6.7 mph 98% 0 in
03:31 49.6 °F 50 °F 30.5 in Calm   6.7 mph 98% 0 in
03:36 49.6 °F 50 °F 30.5 in West 6 mph 8.1 mph 98% 0 in
03:37 49.6 °F 50 °F 30.5 in West 4.3 mph 8.1 mph 98% 0 in
03:38 49.6 °F 50 °F 30.5 in West 6.7 mph 8.1 mph 98% 0 in
03:42 49.5 °F 50 °F 30.5 in West 5.8 mph 8.1 mph 98% 0 in
03:47 49.5 °F 50 °F 30.5 in West 4 mph 6.7 mph 98% 0 in
03:52 49.5 °F 50 °F 30.5 in WSW 4.9 mph 6.5 mph 98% 0 in
03:54 49.5 °F 50 °F 30.5 in WSW 0.9 mph 7.6 mph 98% 0 in
03:59 49.5 °F 50 °F 30.5 in WSW 4 mph 7.6 mph 98% 0 in
04:01 49.5 °F 50 °F 30.5 in WSW 4.3 mph 7.6 mph 98% 0 in
04:06 49.5 °F 50 °F 30.5 in Calm   6 mph 98% 0 in
04:08 49.5 °F 50 °F 30.5 in WSW 3.1 mph 6.3 mph 98% 0 in
04:12 49.5 °F 50 °F 30.5 in Calm   6.5 mph 98% 0 in
04:18 49.5 °F 50 °F 30.5 in Calm   7.6 mph 98% 0 in
04:23 49.5 °F 50 °F 30.5 in WSW 6.7 mph 7.6 mph 98% 0 in
04:28 49.5 °F 50 °F 30.5 in Calm   7.6 mph 98% 0 in
04:32 49.5 °F 50 °F 30.5 in West 2.7 mph 7.6 mph 98% 0 in
04:37 49.5 °F 50 °F 30.5 in WSW 6 mph 6.3 mph 98% 0 in
04:42 49.5 °F 50 °F 30.5 in West 2.5 mph 6.5 mph 98% 0 in
04:47 49.5 °F 50 °F 30.5 in Calm   6.5 mph 98% 0 in
04:51 49.5 °F 50 °F 30.5 in WSW 2.5 mph 6.5 mph 98% 0 in
04:52 49.5 °F 50 °F 30.5 in WSW 3.6 mph 6.5 mph 98% 0 in
04:57 49.5 °F 50 °F 30.5 in Calm   9.4 mph 98% 0 in
04:59 49.5 °F 50 °F 30.5 in West 4 mph 9.4 mph 98% 0 in
05:04 49.5 °F 50 °F 30.5 in WSW 6 mph 7.4 mph 98% 0 in
05:05 49.3 °F 50 °F 30.5 in West 6.3 mph 6.5 mph 98% 0 in
05:06 49.5 °F 50 °F 30.5 in WSW 4.9 mph 6.5 mph 98% 0 in
05:12 49.3 °F 50 °F 30.5 in WSW 5.8 mph 6.3 mph 98% 0 in
05:17 49.3 °F 50 °F 30.5 in West 1.1 mph 6.3 mph 98% 0 in
05:20 49.3 °F 50 °F 30.5 in West 3.6 mph 6 mph 98% 0 in
05:24 49.3 °F 50 °F 30.5 in WSW 3.4 mph 4.9 mph 98% 0 in
05:25 49.3 °F 50 °F 30.5 in Calm   4.9 mph 98% 0 in
05:30 49.3 °F 50 °F 30.5 in Calm   4.9 mph 98% 0 in
05:35 49.3 °F 50 °F 30.5 in Calm   5.4 mph 98% 0 in
05:36 49.3 °F 50 °F 30.5 in Calm   5.4 mph 98% 0 in
05:41 49.3 °F 50 °F 30.5 in Calm   5.4 mph 98% 0 in
05:46 49.3 °F 50 °F 30.5 in Calm   4.3 mph 98% 0 in
05:51 49.3 °F 50 °F 30.5 in Calm   4.3 mph 98% 0 in
05:52 49.3 °F 50 °F 30.5 in Calm   4.3 mph 98% 0 in
05:57 49.3 °F 50 °F 30.5 in Calm   5.4 mph 98% 0 in
06:01 49.3 °F 50 °F 30.5 in Calm   5.4 mph 98% 0 in
06:06 49.3 °F 50 °F 30.5 in Calm     98% 0 in
06:07 49.3 °F 50 °F 30.5 in Calm     98% 0 in
06:12 49.3 °F 50 °F 30.5 in WSW 3.8 mph 4 mph 98% 0 in
06:14 49.3 °F 50 °F 30.5 in Calm   4.5 mph 98% 0 in
06:19 49.3 °F 50 °F 30.5 in West 3.1 mph 5.6 mph 98% 0 in
06:21 49.3 °F 50 °F 30.5 in Calm   5.6 mph 98% 0 in
06:26 49.1 °F 50 °F 30.5 in Calm   5.6 mph 98% 0 in
06:29 49.1 °F 50 °F 30.5 in Calm   4.3 mph 98% 0 in
06:34 49.1 °F 50 °F 30.5 in Calm   3.4 mph 98% 0 in
06:36 49.1 °F 50 °F 30.5 in Calm     98% 0 in
06:41 49.1 °F 50 °F 30.5 in Calm     98% 0 in
06:46 49.1 °F 50 °F 30.5 in Calm     98% 0 in
06:47 49.1 °F 50 °F 30.5 in West 1.1 mph 2.5 mph 98% 0 in
06:52 49.1 °F 50 °F 30.5 in Calm   5.4 mph 98% 0 in
06:53 49.1 °F 50 °F 30.5 in Calm   5.4 mph 98% 0 in
06:59 49.1 °F 50 °F 30.5 in Calm   3.4 mph 98% 0 in
07:04 49.1 °F 50 °F 30.5 in Calm   2.2 mph 98% 0 in
07:06 49.1 °F 50 °F 30.5 in Calm   2.2 mph 98% 0 in
07:11 49.1 °F 50 °F 30.5 in Calm   3.1 mph 98% 0 in
07:12 49.1 °F 50 °F 30.5 in Calm   3.1 mph 98% 0 in
07:16 48.9 °F 48.2 °F 30.5 in Calm   3.1 mph 98% 0 in
07:17 48.9 °F 48.2 °F 30.5 in Calm   3.1 mph 98% 0 in
07:22 48.9 °F 48.2 °F 30.5 in Calm   1.6 mph 98% 0 in
07:24 48.9 °F 48.2 °F 30.5 in Calm     98% 0 in
07:27 48.9 °F 48.2 °F 30.5 in Calm     98% 0 in
07:31 48.9 °F 48.2 °F 30.5 in Calm     98% 0 in
07:36 48.9 °F 48.2 °F 30.5 in Calm     98% 0 in
07:41 48.7 °F 48.2 °F 30.5 in Calm     98% 0 in
07:42 48.7 °F 48.2 °F 30.5 in Calm   0.9 mph 98% 0 in
07:48 48.7 °F 48.2 °F 30.5 in West 1.3 mph 2 mph 98% 0 in
07:53 48.7 °F 48.2 °F 30.5 in Calm   2.5 mph 98% 0 in
07:58 48.7 °F 48.2 °F 30.5 in Calm   2.5 mph 98% 0 in
08:00 48.7 °F 48.2 °F 30.5 in Calm     98% 0 in
08:05 48.7 °F 48.2 °F 30.5 in Calm     98% 0 in
08:10 48.7 °F 48.2 °F 30.5 in Calm     98% 0 in
08:12 48.7 °F 48.2 °F 30.5 in Calm     98% 0 in
08:15 48.7 °F 48.2 °F 30.5 in Calm     98% 0 in
08:17 48.7 °F 48.2 °F 30.5 in Calm     98% 0 in
08:22 48.7 °F 48.2 °F 30.5 in Calm     98% 0 in
08:24 48.6 °F 48.2 °F 30.5 in Calm     98% 0 in
08:29 48.6 °F 48.2 °F 30.5 in Calm     98% 0 in
08:30 48.6 °F 48.2 °F 30.5 in Calm     98% 0 in
08:31 48.6 °F 48.2 °F 30.5 in Calm     98% 0 in
08:36 48.6 °F 48.2 °F 30.5 in Calm     98% 0 in
08:41 48.6 °F 48.2 °F 30.5 in Calm     98% 0 in
08:46 48.6 °F 48.2 °F 30.5 in Calm     98% 0 in
08:50 48.6 °F 48.2 °F 30.5 in Calm     98% 0 in
08:51 48.6 °F 48.2 °F 30.5 in Calm     98% 0 in
08:58 48.6 °F 48.2 °F 30.5 in Calm   2 mph 98% 0 in
08:59 48.6 °F 48.2 °F 30.5 in Calm   2 mph 98% 0 in
09:04 48.6 °F 48.2 °F 30.5 in Calm   3.1 mph 98% 0 in
09:09 48.6 °F 48.2 °F 30.5 in Calm   3.1 mph 98% 0 in
09:14 48.6 °F 48.2 °F 30.5 in Calm     98% 0 in
09:20 48.7 °F 48.2 °F 30.5 in Calm   1.1 mph 98% 0 in
09:25 48.7 °F 48.2 °F 30.5 in Calm   1.1 mph 98% 0 in
09:30 48.7 °F 48.2 °F 30.5 in Calm   2.5 mph 98% 0 in
09:32 48.7 °F 48.2 °F 30.5 in Calm   2.5 mph 98% 0 in
09:37 48.7 °F 48.2 °F 30.5 in Calm   2.5 mph 98% 0 in
09:38 48.7 °F 48.2 °F 30.5 in Calm   2.5 mph 98% 0 in
09:43 48.7 °F 48.2 °F 30.5 in West 0.9 mph 0.9 mph 98% 0 in
09:47 48.7 °F 48.2 °F 30.5 in Calm   3.1 mph 98% 0 in
09:52 48.7 °F 48.2 °F 30.5 in Calm   3.6 mph 98% 0 in
09:53 48.7 °F 48.2 °F 30.5 in Calm   3.6 mph 98% 0 in
09:58 48.9 °F 48.2 °F 30.5 in Calm   3.6 mph 98% 0 in
09:59 48.9 °F 48.2 °F 30.5 in Calm   3.6 mph 98% 0 in
10:04 48.9 °F 48.2 °F 30.5 in Calm   2.9 mph 98% 0 in
10:09 48.9 °F 48.2 °F 30.5 in Calm   4 mph 98% 0 in
10:10 48.9 °F 48.2 °F 30.5 in Calm   4 mph 98% 0 in
10:15 48.9 °F 48.2 °F 30.5 in Calm   4 mph 98% 0 in
10:17 48.9 °F 48.2 °F 30.5 in NW 1.3 mph 3.6 mph 98% 0 in
10:22 49.1 °F 50 °F 30.5 in Calm   2.9 mph 98% 0 in
10:24 49.1 °F 50 °F 30.5 in Calm   2.9 mph 98% 0 in
10:30 49.1 °F 50 °F 30.6 in NNW 2.9 mph 3.4 mph 98% 0 in
10:32 49.1 °F 50 °F 30.6 in Calm   3.4 mph 98% 0 in
10:33 49.1 °F 50 °F 30.6 in Calm   3.4 mph 98% 0 in
10:38 49.1 °F 50 °F 30.6 in Calm   3.4 mph 98% 0 in
10:41 49.1 °F 50 °F 30.6 in Calm     98% 0 in
10:46 49.3 °F 50 °F 30.6 in Calm     98% 0 in
10:49 49.5 °F 50 °F 30.6 in Calm     98% 0 in
10:54 49.5 °F 50 °F 30.6 in Calm     98% 0 in
10:55 49.6 °F 50 °F 30.6 in Calm     98% 0 in
11:00 49.8 °F 50 °F 30.5 in Calm     98% 0 in
11:02 49.8 °F 50 °F 30.5 in Calm     98% 0 in
11:07 50 °F 50 °F 30.5 in Calm     98% 0 in
11:10 50 °F 50 °F 30.5 in Calm     98% 0 in
11:15 50.2 °F 50 °F 30.6 in Calm     98% 0 in
11:19 50.2 °F 50 °F 30.6 in Calm     98% 0 in
11:24 50.4 °F 50 °F 30.6 in Calm     98% 0 in
11:25 50.5 °F 50 °F 30.6 in WNW 3.1 mph 3.1 mph 98% 0 in
11:30 50.5 °F 50 °F 30.6 in Calm   3.1 mph 98% 0 in
11:34 50.7 °F 50 °F 30.6 in Calm   3.1 mph 98% 0 in
11:40 50.7 °F 50 °F 30.6 in Calm   3.8 mph 98% 0 in
11:42 50.7 °F 50 °F 30.6 in Calm   3.8 mph 98% 0 in
11:47 50.7 °F 50 °F 30.6 in North 2.2 mph 4 mph 98% 0 in
11:49 50.5 °F 50 °F 30.6 in Calm   4 mph 98% 0 in
11:53 50.5 °F 50 °F 30.6 in Calm   5.6 mph 98% 0 in
11:58 50.7 °F 50 °F 30.6 in Calm   5.6 mph 98% 0 in
12:00 50.7 °F 50 °F 30.6 in Calm   5.6 mph 98% 0 in
12:07 50.7 °F 50 °F 30.6 in Calm   5.8 mph 98% 0 in
12:11 50.7 °F 50 °F 30.6 in Calm   5.8 mph 98% 0 in
12:16 50.9 °F 51.8 °F 30.6 in NNW 0.9 mph 5.4 mph 98% 0 in
12:18 50.9 °F 51.8 °F 30.6 in Calm   5.4 mph 98% 0 in
12:23 50.9 °F 51.8 °F 30.6 in Calm   5.4 mph 98% 0 in
12:28 50.9 °F 51.8 °F 30.6 in WNW 2.7 mph 4.7 mph 98% 0 in
12:29 50.9 °F 51.8 °F 30.6 in Calm   4.7 mph 98% 0 in
12:34 50.9 °F 51.8 °F 30.6 in NNW 1.1 mph 3.8 mph 98% 0 in
12:38 50.9 °F 51.8 °F 30.6 in Calm   3.8 mph 98% 0 in
12:43 50.9 °F 51.8 °F 30.6 in NW 2 mph 3.6 mph 98% 0 in
12:44 50.9 °F 51.8 °F 30.6 in Calm   3.6 mph 98% 0 in
12:50 50.9 °F 51.8 °F 30.6 in North 2 mph 3.6 mph 98% 0 in
12:53 50.9 °F 51.8 °F 30.6 in NNW 4.3 mph 4.3 mph 98% 0 in
12:58 50.9 °F 51.8 °F 30.6 in Calm   5.4 mph 98% 0 in
12:59 50.9 °F 51.8 °F 30.6 in Calm   5.4 mph 98% 0 in
13:04 50.9 °F 51.8 °F 30.6 in Calm   5.4 mph 98% 0 in
13:05 50.7 °F 50 °F 30.6 in Calm   5.4 mph 98% 0 in
13:08 50.7 °F 50 °F 30.6 in Calm   4.3 mph 98% 0 in
13:12 50.9 °F 51.8 °F 30.6 in Calm   4.3 mph 98% 0 in
13:17 50.9 °F 51.8 °F 30.6 in West 0.9 mph 3.8 mph 98% 0 in
13:18 50.9 °F 51.8 °F 30.6 in Calm   3.8 mph 98% 0 in
13:23 50.9 °F 51.8 °F 30.6 in Calm   3.8 mph 98% 0 in
13:31 50.9 °F 51.8 °F 30.6 in Calm   2.9 mph 98% 0 in
13:37 51.1 °F 51.8 °F 30.6 in Calm   1.1 mph 98% 0 in
13:39 51.1 °F 51.8 °F 30.6 in Calm   1.1 mph 98% 0 in
13:44 51.3 °F 51.8 °F 30.6 in Calm     98% 0 in
13:45 51.3 °F 51.8 °F 30.6 in Calm     98% 0 in
13:50 51.3 °F 51.8 °F 30.6 in Calm     98% 0 in
13:53 51.4 °F 51.8 °F 30.6 in Calm   0.9 mph 98% 0 in
13:58 51.4 °F 51.8 °F 30.6 in WNW 2.9 mph 3.1 mph 98% 0 in
13:59 51.4 °F 51.8 °F 30.6 in NNW 2.7 mph 3.1 mph 98% 0 in
14:02 51.4 °F 51.8 °F 30.6 in Calm   3.1 mph 98% 0 in
14:07 51.6 °F 51.8 °F 30.6 in Calm   2.9 mph 98% 0 in
14:12 51.8 °F 51.8 °F 30.6 in Calm   3.8 mph 98% 0 in
14:13 51.8 °F 51.8 °F 30.6 in West 0.9 mph 3.8 mph 98% 0 in
14:18 51.8 °F 51.8 °F 30.6 in Calm   3.8 mph 98% 0 in
14:22 52 °F 51.8 °F 30.6 in Calm   3.8 mph 98% 0 in
14:27 52.2 °F 51.8 °F 30.6 in Calm   4 mph 98% 0 in
14:28 52.2 °F 51.8 °F 30.6 in Calm   4 mph 98% 0 in
14:32 52.3 °F 51.8 °F 30.6 in Calm   4 mph 98% 0 in
14:37 52.3 °F 51.8 °F 30.6 in Calm   3.6 mph 98% 0 in
14:38 52.3 °F 51.8 °F 30.6 in Calm   3.6 mph 98% 0 in
14:42 52.2 °F 51.8 °F 30.6 in WNW 1.1 mph 3.1 mph 98% 0 in
14:44 52.2 °F 51.8 °F 30.6 in Calm   3.1 mph 98% 0 in
14:49 52.2 °F 51.8 °F 30.6 in Calm   3.6 mph 98% 0 in
14:50 52.2 °F 51.8 °F 30.6 in Calm   3.6 mph 98% 0 in
14:55 52.2 °F 51.8 °F 30.6 in Calm   3.6 mph 98% 0 in
14:56 52.2 °F 51.8 °F 30.6 in WNW 2.2 mph 3.6 mph 98% 0 in
14:59 52 °F 51.8 °F 30.6 in Calm   2.5 mph 98% 0 in
15:04 52 °F 51.8 °F 30.6 in West 4.5 mph 4.5 mph 98% 0 in
15:10 52 °F 51.8 °F 30.6 in West 1.1 mph 4.5 mph 98% 0 in
15:12 51.8 °F 51.8 °F 30.5 in Calm   4.5 mph 98% 0 in
15:17 51.8 °F 51.8 °F 30.5 in Calm   3.6 mph 98% 0 in
15:19 51.8 °F 51.8 °F 30.5 in West 4 mph 4 mph 98% 0 in
15:22 51.8 °F 51.8 °F 30.5 in Calm   4.7 mph 98% 0 in
15:24 51.6 °F 51.8 °F 30.5 in Calm   4.7 mph 98% 0 in
15:29 51.6 °F 51.8 °F 30.5 in Calm   4.7 mph 98% 0 in
15:30 51.6 °F 51.8 °F 30.5 in West 2.2 mph 4.7 mph 98% 0 in
15:36 51.4 °F 51.8 °F 30.5 in Calm   4.3 mph 98% 0 in
15:39 51.4 °F 51.8 °F 30.5 in Calm   4.3 mph 98% 0 in
15:41 51.4 °F 51.8 °F 30.6 in Calm   4.3 mph 98% 0 in
15:46 51.3 °F 51.8 °F 30.6 in Calm   4 mph 98% 0 in
15:50 51.3 °F 51.8 °F 30.6 in Calm   4 mph 98% 0 in
15:51 51.3 °F 51.8 °F 30.6 in Calm   4 mph 98% 0 in
15:56 51.3 °F 51.8 °F 30.5 in West 4.3 mph 4.3 mph 98% 0 in
15:57 51.3 °F 51.8 °F 30.5 in WSW 1.1 mph 4.3 mph 98% 0 in
15:59 51.3 °F 51.8 °F 30.5 in Calm   4.3 mph 98% 0 in
16:04 51.1 °F 51.8 °F 30.5 in West 4.3 mph 4.9 mph 98% 0 in
16:06 51.1 °F 51.8 °F 30.5 in WSW 2.7 mph 4.9 mph 98% 0 in
16:08 51.1 °F 51.8 °F 30.5 in WSW 2.2 mph 4.9 mph 98% 0 in
16:12 51.1 °F 51.8 °F 30.5 in Calm   4.9 mph 98% 0 in
16:17 51.1 °F 51.8 °F 30.5 in Calm   2.9 mph 98% 0 in
16:20 51.1 °F 51.8 °F 30.5 in Calm   2.9 mph 98% 0 in
16:22 51.1 °F 51.8 °F 30.5 in Calm   2.9 mph 98% 0 in
16:29 50.9 °F 51.8 °F 30.6 in Calm   3.1 mph 98% 0 in
16:31 50.9 °F 51.8 °F 30.6 in Calm   3.1 mph 98% 0 in
16:35 50.9 °F 51.8 °F 30.6 in Calm   3.1 mph 98% 0 in
16:38 50.9 °F 51.8 °F 30.6 in Calm   0.9 mph 98% 0 in
16:43 50.7 °F 50 °F 30.6 in Calm     98% 0 in
16:46 50.7 °F 50 °F 30.6 in Calm     98% 0 in
16:47 50.7 °F 50 °F 30.6 in Calm     98% 0 in
16:51 50.7 °F 50 °F 30.6 in Calm     98% 0 in
16:56 50.5 °F 50 °F 30.6 in Calm     98% 0 in
17:01 50.5 °F 50 °F 30.6 in Calm     98% 0 in
17:03 50.4 °F 50 °F 30.6 in Calm     98% 0 in
17:08 50.4 °F 50 °F 30.6 in Calm     98% 0 in
17:09 50.4 °F 50 °F 30.6 in Calm     98% 0 in
17:14 50.4 °F 50 °F 30.6 in Calm     98% 0 in
17:19 50.2 °F 50 °F 30.6 in Calm     98% 0 in
17:21 50.2 °F 50 °F 30.6 in Calm     98% 0 in
17:26 50.4 °F 50 °F 30.6 in Calm     98% 0 in
17:27 50.4 °F 50 °F 30.6 in Calm     98% 0 in
17:28 50.4 °F 50 °F 30.6 in Calm     98% 0 in
17:33 50.4 °F 50 °F 30.6 in Calm     98% 0 in
17:34 50.4 °F 50 °F 30.6 in Calm     98% 0 in
17:39 50.2 °F 50 °F 30.6 in Calm     98% 0 in
17:40 50.2 °F 50 °F 30.6 in Calm     98% 0 in
17:45 50.2 °F 50 °F 30.6 in Calm     98% 0 in
17:50 50.2 °F 50 °F 30.6 in Calm     98% 0 in
17:51 50.2 °F 50 °F 30.6 in Calm     98% 0 in
17:56 50.2 °F 50 °F 30.6 in Calm     98% 0 in
17:57 50.2 °F 50 °F 30.6 in Calm     98% 0 in
18:02 50 °F 50 °F 30.6 in Calm     98% 0 in
18:03 50 °F 50 °F 30.6 in Calm     98% 0 in
18:08 50 °F 50 °F 30.6 in Calm     98% 0 in
18:13 50 °F 50 °F 30.6 in Calm     98% 0 in
18:16 50 °F 50 °F 30.6 in Calm     98% 0 in
18:21 50 °F 50 °F 30.6 in Calm     98% 0 in
18:26 50 °F 50 °F 30.6 in Calm     98% 0 in
18:27 49.8 °F 50 °F 30.6 in Calm     98% 0 in
18:29 49.8 °F 50 °F 30.6 in Calm     98% 0 in
18:34 49.8 °F 50 °F 30.6 in Calm     98% 0 in
18:39 49.8 °F 50 °F 30.6 in SSE 0.9 mph 1.6 mph 98% 0 in
18:44 49.8 °F 50 °F 30.6 in Calm   2.5 mph 98% 0 in
18:49 50 °F 50 °F 30.6 in Calm   2.5 mph 98% 0 in
18:54 50 °F 50 °F 30.6 in West 2.7 mph 2.7 mph 98% 0 in
18:55 50 °F 50 °F 30.6 in Calm   2.7 mph 98% 0 in
18:56 50 °F 50 °F 30.6 in Calm   2.7 mph 98% 0 in
19:01 50 °F 50 °F 30.6 in Calm   2.7 mph 98% 0 in
19:05 49.8 °F 50 °F 30.6 in Calm   1.3 mph 98% 0 in
19:10 49.8 °F 50 °F 30.6 in Calm   1.3 mph 98% 0 in
19:13 49.6 °F 50 °F 30.6 in Calm     98% 0 in
19:14 49.6 °F 50 °F 30.6 in Calm     98% 0 in
19:19 49.6 °F 50 °F 30.6 in Calm     98% 0 in
19:26 49.6 °F 50 °F 30.6 in Calm     98% 0 in
19:27 49.6 °F 50 °F 30.6 in Calm     98% 0 in
19:32 49.6 °F 50 °F 30.6 in Calm     98% 0 in
19:33 49.6 °F 50 °F 30.6 in Calm     98% 0 in
19:38 49.6 °F 50 °F 30.6 in Calm     98% 0 in
19:40 49.6 °F 50 °F 30.6 in Calm     98% 0 in
19:45 49.6 °F 50 °F 30.6 in Calm     98% 0 in
19:48 49.6 °F 50 °F 30.6 in Calm     98% 0 in
19:53 49.5 °F 50 °F 30.6 in Calm     98% 0 in
19:58 49.5 °F 50 °F 30.6 in Calm     98% 0 in
20:00 49.3 °F 50 °F 30.6 in Calm     98% 0 in
20:03 49.3 °F 50 °F 30.6 in Calm     98% 0 in
20:08 49.3 °F 50 °F 30.6 in Calm     98% 0 in
20:09 49.3 °F 50 °F 30.6 in Calm     98% 0 in
20:14 49.5 °F 50 °F 30.6 in Calm     98% 0 in
20:16 49.5 °F 50 °F 30.6 in Calm     98% 0 in
20:19 49.5 °F 50 °F 30.6 in Calm     98% 0 in
20:22 49.5 °F 50 °F 30.6 in Calm     98% 0 in
20:27 49.5 °F 50 °F 30.6 in Calm     98% 0 in
20:28 49.5 °F 50 °F 30.6 in Calm     98% 0 in
20:33 49.5 °F 50 °F 30.6 in Calm     98% 0 in
20:38 49.3 °F 50 °F 30.6 in Calm     98% 0 in
20:41 49.3 °F 50 °F 30.6 in Calm     98% 0 in
20:42 49.3 °F 50 °F 30.6 in Calm     98% 0 in
20:47 49.1 °F 50 °F 30.6 in Calm     98% 0 in
20:48 49.1 °F 50 °F 30.6 in Calm     98% 0 in
20:49 49.1 °F 50 °F 30.6 in Calm     98% 0 in
20:54 49.1 °F 50 °F 30.6 in Calm     98% 0 in
20:59 49.1 °F 50 °F 30.6 in Calm     98% 0 in
21:04 49.1 °F 50 °F 30.6 in Calm     98% 0 in
21:06 49.1 °F 50 °F 30.6 in Calm     98% 0 in
21:11 49.1 °F 50 °F 30.6 in Calm     98% 0 in
21:16 49.3 °F 50 °F 30.6 in Calm     98% 0 in
21:18 49.3 °F 50 °F 30.6 in Calm     98% 0 in
21:22 49.3 °F 50 °F 30.6 in Calm     98% 0 in
21:25 49.3 °F 50 °F 30.6 in Calm     98% 0 in
21:29 49.3 °F 50 °F 30.6 in Calm     98% 0 in
21:34 49.3 °F 50 °F 30.6 in Calm     98% 0 in
21:39 49.3 °F 50 °F 30.6 in Calm     98% 0 in
21:41 49.3 °F 50 °F 30.6 in Calm     98% 0 in
21:46 49.3 °F 50 °F 30.6 in Calm     98% 0 in
21:49 49.3 °F 50 °F 30.6 in Calm     98% 0 in
21:50 49.3 °F 50 °F 30.6 in Calm     98% 0 in
21:55 49.1 °F 50 °F 30.6 in Calm     98% 0 in
21:58 49.1 °F 50 °F 30.6 in Calm     98% 0 in
22:01 49.1 °F 50 °F 30.6 in Calm     98% 0 in
22:06 48.9 °F 48.2 °F 30.6 in Calm     98% 0 in
22:07 48.9 °F 48.2 °F 30.6 in Calm     98% 0 in
22:12 48.9 °F 48.2 °F 30.6 in Calm     98% 0 in
22:14 48.9 °F 48.2 °F 30.6 in Calm     98% 0 in
22:19 48.9 °F 48.2 °F 30.6 in Calm     98% 0 in
22:21 48.9 °F 48.2 °F 30.6 in Calm     98% 0 in
22:26 48.9 °F 48.2 °F 30.6 in Calm     98% 0 in
22:27 48.9 °F 48.2 °F 30.6 in Calm     98% 0 in
22:32 48.9 °F 48.2 °F 30.6 in Calm     98% 0 in
22:34 48.9 °F 48.2 °F 30.6 in Calm     98% 0 in
22:39 48.9 °F 48.2 °F 30.6 in Calm     98% 0 in
22:43 48.9 °F 48.2 °F 30.6 in Calm     98% 0 in
22:49 48.9 °F 48.2 °F 30.6 in Calm     98% 0 in
22:51 48.9 °F 48.2 °F 30.6 in Calm     98% 0 in
22:56 48.7 °F 48.2 °F 30.6 in Calm     98% 0 in
23:00 48.7 °F 48.2 °F 30.6 in Calm     98% 0 in
23:01 48.7 °F 48.2 °F 30.6 in Calm     98% 0 in
23:06 48.7 °F 48.2 °F 30.6 in Calm     98% 0 in
23:07 48.7 °F 48.2 °F 30.6 in Calm     98% 0 in
23:12 48.6 °F 48.2 °F 30.6 in Calm     98% 0 in
23:18 48.6 °F 48.2 °F 30.6 in Calm     98% 0 in
23:19 48.4 °F 48.2 °F 30.6 in Calm     98% 0 in
23:24 48.4 °F 48.2 °F 30.6 in Calm     98% 0 in
23:26 48.4 °F 48.2 °F 30.6 in Calm     98% 0 in
23:29 48.4 °F 48.2 °F 30.6 in Calm     98% 0 in
23:32 48.4 °F 48.2 °F 30.6 in Calm     98% 0 in
23:34 48.4 °F 48.2 °F 30.6 in Calm     98% 0 in
23:39 48.4 °F 48.2 °F 30.6 in Calm     98% 0 in
23:44 48.2 °F 48.2 °F 30.6 in Calm     98% 0 in
23:49 48.2 °F 48.2 °F 30.6 in Calm   2 mph 98% 0 in
23:51 48.2 °F 48.2 °F 30.6 in Calm   2 mph 98% 0 in
23:56 48.4 °F 48.2 °F 30.6 in Calm   2 mph 98% 0 in
23:57 48.4 °F 48.2 °F 30.6 in Calm   2 mph 98% 0 in
Données Historique de Météo Turbie

Mise a jour : 26/05/2018 06:16:13
Généré par Cumulus 1.9.4 (1099)